Previsão horária em Barmaky

Hoje, 23 Julho, Sexta-feira

Tempo Temperatura Precipitação Vento Pressão Humidade
00:00 +15°C° 0 mm 2 m/s 743 mmHg 76%
01:00 +15°C° 0 mm 2 m/s 743 mmHg 78%
02:00 +14°C° 0 mm 2 m/s 743 mmHg 81%
03:00 +14°C° 0 mm 2 m/s 743 mmHg 81%
04:00 +14°C° 0 mm 2 m/s 743 mmHg 82%
05:00 +14°C° 0 mm 2 m/s 743 mmHg 82%
06:00 +16°C° 0 mm 2 m/s 743 mmHg 75%
07:00 +18°C° 0 mm 2 m/s 743 mmHg 68%
08:00 +19°C° 0 mm 2 m/s 744 mmHg 61%
09:00 +21°C° 0 mm 3 m/s 744 mmHg 56%
10:00 +22°C° 0 mm 3 m/s 744 mmHg 51%
11:00 +24°C° 0 mm 3 m/s 744 mmHg 47%
12:00 +25°C° 0 mm 4 m/s 743 mmHg 46%
13:00 +25°C° 0 mm 4 m/s 743 mmHg 45%
14:00 +25°C° 0 mm 4 m/s 743 mmHg 46%
15:00 +25°C° 0 mm 3 m/s 743 mmHg 49%
16:00 +24°C° 0 mm 3 m/s 743 mmHg 53%
17:00 +24°C° 0 mm 2 m/s 743 mmHg 56%
18:00 +23°C° 0 mm 2 m/s 743 mmHg 58%
19:00 +21°C° 0 mm 2 m/s 743 mmHg 60%
20:00 +20°C° 0 mm 2 m/s 743 mmHg 62%
21:00 +20°C° 0 mm 2 m/s 743 mmHg 63%
22:00 +21°C° 0 mm 1 m/s 743 mmHg 64%
23:00 +20°C° 0 mm 1 m/s 743 mmHg 65%

Amanhã, 24 Julho, Sábado

Tempo Temperatura Precipitação Vento Pressão Humidade
00:00 +20°C° 0 mm 1 m/s 743 mmHg 66%
01:00 +20°C° 0 mm 1 m/s 743 mmHg 66%
02:00 +20°C° 0 mm 1 m/s 743 mmHg 67%
03:00 +19°C° 0 mm 1 m/s 743 mmHg 68%
04:00 +19°C° 0 mm 1 m/s 743 mmHg 70%
05:00 +19°C° 0 mm 1 m/s 743 mmHg 71%
06:00 +20°C° 0 mm 1 m/s 743 mmHg 69%
07:00 +20°C° 0 mm 1 m/s 743 mmHg 67%
08:00 +21°C° 0 mm 1 m/s 743 mmHg 65%
09:00 +22°C° 0 mm 1 m/s 743 mmHg 63%
10:00 +23°C° 0 mm 2 m/s 744 mmHg 60%
11:00 +24°C° 0 mm 2 m/s 744 mmHg 58%
12:00 +25°C° 0 mm 2 m/s 744 mmHg 55%
13:00 +25°C° 0 mm 2 m/s 744 mmHg 52%
14:00 +26°C° 0 mm 3 m/s 744 mmHg 50%
15:00 +26°C° 0 mm 2 m/s 743 mmHg 49%
16:00 +26°C° 0 mm 2 m/s 743 mmHg 49%
17:00 +26°C° 0 mm 1 m/s 743 mmHg 49%
18:00 +24°C° 0 mm 1 m/s 744 mmHg 53%
19:00 +23°C° 0 mm 1 m/s 744 mmHg 57%
20:00 +22°C° 0 mm 1 m/s 744 mmHg 62%
21:00 +21°C° 0 mm 1 m/s 744 mmHg 62%
22:00 +21°C° 0 mm 1 m/s 744 mmHg 63%
23:00 +20°C° 0 mm 1 m/s 744 mmHg 64%

Depois de amanhã, 25 Julho, Domingo

Tempo Temperatura Precipitação Vento Pressão Humidade
00:00 +20°C° 0 mm 1 m/s 744 mmHg 66%
01:00 +19°C° 0 mm 1 m/s 744 mmHg 68%
02:00 +18°C° 0 mm 2 m/s 744 mmHg 70%
03:00 +18°C° 0 mm 2 m/s 744 mmHg 69%
04:00 +19°C° 0 mm 1 m/s 744 mmHg 68%
05:00 +20°C° 0 mm 1 m/s 744 mmHg 66%
06:00 +21°C° 0 mm 1 m/s 744 mmHg 64%
07:00 +21°C° 0 mm 1 m/s 745 mmHg 62%
08:00 +21°C° 0 mm 2 m/s 745 mmHg 60%
09:00 +24°C° 0 mm 2 m/s 745 mmHg 55%
10:00 +25°C° 0 mm 2 m/s 745 mmHg 51%
11:00 +26°C° 0 mm 2 m/s 745 mmHg 47%
12:00 +27°C° 0 mm 2 m/s 745 mmHg 46%
13:00 +27°C° 0 mm 2 m/s 745 mmHg 45%
14:00 +27°C° 0 mm 3 m/s 745 mmHg 43%
15:00 +27°C° 0 mm 3 m/s 745 mmHg 46%
16:00 +26°C° 0 mm 3 m/s 745 mmHg 49%
17:00 +26°C° 0 mm 3 m/s 745 mmHg 52%
18:00 +25°C° 0 mm 3 m/s 745 mmHg 54%
19:00 +24°C° 0 mm 3 m/s 745 mmHg 57%
20:00 +22°C° 0 mm 3 m/s 745 mmHg 60%
21:00 +22°C° 0 mm 3 m/s 745 mmHg 60%
22:00 +22°C° 0 mm 3 m/s 745 mmHg 60%
23:00 +21°C° 0 mm 3 m/s 745 mmHg 60%

26 Julho, Segunda-feira

Tempo Temperatura Precipitação Vento Pressão Humidade
00:00 +21°C° 0 mm 3 m/s 745 mmHg 61%
01:00 +21°C° 0 mm 3 m/s 745 mmHg 63%
02:00 +20°C° 0 mm 3 m/s 745 mmHg 64%
03:00 +20°C° 0 mm 3 m/s 745 mmHg 64%
04:00 +20°C° 0 mm 3 m/s 745 mmHg 65%
05:00 +20°C° 0 mm 3 m/s 745 mmHg 65%
06:00 +21°C° 0 mm 4 m/s 745 mmHg 63%
07:00 +22°C° 0 mm 4 m/s 745 mmHg 60%
08:00 +23°C° 0 mm 5 m/s 745 mmHg 58%
09:00 +26°C° 0 mm 6 m/s 745 mmHg 53%
10:00 +27°C° 0 mm 6 m/s 745 mmHg 49%
11:00 +29°C° 0 mm 6 m/s 745 mmHg 44%
12:00 +29°C° 0 mm 6 m/s 745 mmHg 44%
13:00 +30°C° 0 mm 6 m/s 745 mmHg 43%
14:00 +30°C° 0 mm 6 m/s 745 mmHg 43%
15:00 +30°C° 0 mm 6 m/s 745 mmHg 44%
16:00 +30°C° 0 mm 5 m/s 745 mmHg 46%
17:00 +29°C° 0 mm 5 m/s 744 mmHg 48%
18:00 +28°C° 0 mm 4 m/s 744 mmHg 53%
19:00 +26°C° 0 mm 4 m/s 744 mmHg 59%
20:00 +25°C° 0 mm 4 m/s 744 mmHg 64%
21:00 +23°C° 0 mm 4 m/s 744 mmHg 67%
22:00 +22°C° 0 mm 4 m/s 744 mmHg 69%
23:00 +22°C° 0 mm 4 m/s 745 mmHg 72%

27 Julho, Terça-feira

Tempo Temperatura Precipitação Vento Pressão Humidade
00:00 +21°C° 0 mm 5 m/s 744 mmHg 70%
01:00 +21°C° 0 mm 5 m/s 744 mmHg 69%
02:00 +21°C° 0 mm 5 m/s 744 mmHg 67%
03:00 +20°C° 0 mm 5 m/s 744 mmHg 66%
04:00 +20°C° 0 mm 5 m/s 744 mmHg 66%
05:00 +20°C° 0 mm 5 m/s 744 mmHg 65%
06:00 +21°C° 0 mm 5 m/s 744 mmHg 62%
07:00 +22°C° 0 mm 6 m/s 744 mmHg 60%
08:00 +23°C° 0 mm 6 m/s 744 mmHg 58%
09:00 +26°C° 0.1 mm 6 m/s 744 mmHg 56%
10:00 +27°C° 0.1 mm 6 m/s 744 mmHg 54%
11:00 +28°C° 0.1 mm 6 m/s 744 mmHg 52%
12:00 +30°C° 0 mm 6 m/s 743 mmHg 48%
13:00 +32°C° 0 mm 6 m/s 743 mmHg 45%
14:00 +33°C° 0 mm 6 m/s 743 mmHg 42%
15:00 +33°C° 0 mm 6 m/s 743 mmHg 44%
16:00 +33°C° 0 mm 5 m/s 743 mmHg 46%
17:00 +33°C° 0 mm 5 m/s 743 mmHg 48%
18:00 +30°C° 0 mm 5 m/s 742 mmHg 53%
19:00 +29°C° 0 mm 5 m/s 742 mmHg 58%
20:00 +27°C° 0 mm 4 m/s 742 mmHg 63%
21:00 +26°C° 0.3 mm 4 m/s 742 mmHg 71%
22:00 +23°C° 0.3 mm 4 m/s 742 mmHg 78%
23:00 +21°C° 0.3 mm 4 m/s 741 mmHg 85%

28 Julho, Quarta-feira

Tempo Temperatura Precipitação Vento Pressão Humidade
00:00 +21°C° 0.1 mm 4 m/s 741 mmHg 86%
01:00 +20°C° 0.1 mm 4 m/s 741 mmHg 86%
02:00 +20°C° 0.1 mm 4 m/s 740 mmHg 86%
03:00 +20°C° 0.2 mm 4 m/s 740 mmHg 86%
04:00 +20°C° 0.2 mm 5 m/s 740 mmHg 86%
05:00 +21°C° 0.2 mm 5 m/s 740 mmHg 86%
06:00 +22°C° 0 mm 5 m/s 740 mmHg 79%
07:00 +25°C° 0 mm 5 m/s 740 mmHg 73%
08:00 +26°C° 0 mm 4 m/s 740 mmHg 66%
09:00 +29°C° 0 mm 6 m/s 740 mmHg 58%
10:00 +32°C° 0 mm 7 m/s 740 mmHg 49%
11:00 +34°C° 0 mm 8 m/s 740 mmHg 41%
12:00 +34°C° 0 mm 8 m/s 740 mmHg 40%
13:00 +34°C° 0 mm 8 m/s 740 mmHg 39%
14:00 +35°C° 0 mm 8 m/s 740 mmHg 38%
15:00 +33°C° 0 mm 7 m/s 740 mmHg 43%
16:00 +32°C° 0 mm 7 m/s 740 mmHg 47%
17:00 +30°C° 0 mm 6 m/s 740 mmHg 51%
18:00 +29°C° 0 mm 6 m/s 740 mmHg 55%
19:00 +27°C° 0 mm 5 m/s 740 mmHg 59%
20:00 +25°C° 0 mm 5 m/s 741 mmHg 63%
21:00 +23°C° 0 mm 4 m/s 741 mmHg 69%
22:00 +22°C° 0 mm 4 m/s 741 mmHg 74%
23:00 +21°C° 0 mm 3 m/s 741 mmHg 80%
Mostrar mais